Weather History for Kirksville, MO

Change the Weather History Date:

Thursday, August 23, 2012

  Actual Average Record
Temperature  
Mean Temperature 79 °F 73 °F  
Max Temperature 96 °F 84 °F 103 °F (1936)
Min Temperature 62 °F 62 °F 46 °F (1966)
Degree Days  
Heating Degree Days 0 0  
Month to date heating degree days 7 0  
Since 1 June heating degree days 17 17  
Since 1 July heating degree days 7 1  
Cooling Degree Days 14 8  
Month to date cooling degree days 180 219  
Year to date cooling degree days 1119 786  
Since 1 June cooling degree days 975 724  
Growing Degree Days 28 (Base 50)    
Moisture  
Dew Point 49 °F    
Average Humidity 41    
Maximum Humidity 63    
Minimum Humidity 19    
Precipitation  
Precipitation 0.00 in 0.12 in 2.15 in (1927)
Month to date precipitation 0.21 2.66  
Year to date precipitation 15.56 26.25  
Sea Level Pressure  
Sea Level Pressure 30.01 in    
Wind  
Wind Speed 8 mph (SSW)    
Max Wind Speed 22 mph    
Max Gust Speed 31 mph    
Visibility 10 miles    
Events      
T = Trace of Precipitation, MM = Missing Value Source: NWS Daily Summary

Daily Weather History Graph

Daily Weather History Graph

Search for Another Location

Airport:

Trip Planner

Search our weather history database for the weather conditions in past years. The results will help you decide how hot, cold, wet, or windy it might be!

Date:

Astronomy

Aug. 23, 2012 Rise Set
Actual Time 6:29 AM CDT 7:54 PM CDT
Civil Twilight 6:01 AM CDT 8:23 PM CDT
Nautical Twilight 5:27 AM CDT 8:57 PM CDT
Astronomical Twilight 4:51 AM CDT 9:32 PM CDT
Moon 1:17 PM CDT (8/23) 11:23 PM CDT (8/23)
Length of Visible Light 14h 21m
Length of Day
13h 25m
Waxing Crescent, 40% of the Moon is Illuminated
Aug 23
Waxing Crescent
Aug 24
First Quarter
Aug 31
Full
Sep 8
Last Quarter
Sep 15
New

Hourly Weather History & Observations

Time (CDT) Temp. Dew Point Humidity Pressure Visibility Wind Dir Wind Speed Gust Speed Precip Events Conditions
12:55 AM 66.9 °F 51.1 °F 57% 30.01 in 10.0 mi SSE 4.6 mph - N/A   Clear
1:55 AM 64.9 °F 52.0 °F 63% 30.01 in 10.0 mi SSE 3.5 mph - N/A   Clear
2:55 AM 64.9 °F 51.1 °F 61% 30.01 in 10.0 mi SSE 4.6 mph - N/A   Partly Cloudy
3:55 AM 66.2 °F 51.8 °F 60% 30.03 in 10.0 mi SSW 3.5 mph - N/A   Mostly Cloudy
4:55 AM 64.9 °F 51.1 °F 61% 30.01 in 10.0 mi SSW 4.6 mph - N/A   Partly Cloudy
5:55 AM 66.9 °F 51.1 °F 57% 30.03 in 10.0 mi SW 4.6 mph - N/A   Overcast
6:55 AM 68.0 °F 51.1 °F 55% 30.05 in 10.0 mi SW 5.8 mph - N/A   Overcast
7:55 AM 70.0 °F 52.0 °F 53% 30.06 in 10.0 mi SW 4.6 mph - N/A   Mostly Cloudy
8:55 AM 78.1 °F 52.0 °F 40% 30.07 in 10.0 mi SSW 5.8 mph - N/A   Partly Cloudy
9:55 AM 84.0 °F 50.0 °F 31% 30.07 in 10.0 mi WSW 11.5 mph 17.3 mph N/A   Clear
10:55 AM 89.1 °F 48.9 °F 25% 30.06 in 10.0 mi WSW 12.7 mph 20.7 mph N/A   Clear
11:55 AM 91.9 °F 48.0 °F 22% 30.06 in 10.0 mi SSW 9.2 mph 19.6 mph N/A   Clear
12:55 PM 91.9 °F 46.9 °F 21% 30.04 in 10.0 mi SW 9.2 mph 21.9 mph N/A   Clear
1:55 PM 93.9 °F 48.0 °F 21% 30.02 in 10.0 mi South 16.1 mph 24.2 mph N/A   Scattered Clouds
2:55 PM 93.9 °F 48.0 °F 21% 30.00 in 10.0 mi South 15.0 mph 24.2 mph N/A   Mostly Cloudy
3:55 PM 93.0 °F 46.9 °F 20% 29.98 in 10.0 mi South 11.5 mph 27.6 mph N/A   Partly Cloudy
4:55 PM 93.9 °F 45.0 °F 18% 29.97 in 10.0 mi South 19.6 mph 25.3 mph N/A   Clear
5:55 PM 91.0 °F 44.1 °F 20% 29.96 in 10.0 mi South 15.0 mph 21.9 mph N/A   Clear
6:55 PM 88.0 °F 45.0 °F 22% 29.96 in 10.0 mi SW 8.1 mph - N/A   Clear
7:55 PM 78.1 °F 48.0 °F 35% 29.96 in 10.0 mi SW 3.5 mph - N/A   Clear
8:55 PM 78.1 °F 46.9 °F 33% 29.96 in 10.0 mi South 4.6 mph - N/A   Clear
9:55 PM 73.9 °F 50.0 °F 43% 29.96 in 10.0 mi SSE 3.5 mph - N/A   Clear
10:55 PM 72.0 °F 52.0 °F 49% 29.97 in 10.0 mi Calm Calm - N/A   Clear
11:55 PM 72.0 °F 50.0 °F 46% 29.97 in 10.0 mi South 5.8 mph - N/A   Clear